スキッフ彗星

C/2007 H2 ( Skiff )

English version
Home page
Updated on September 23, 2007

---------------------------------------------------------------------

・ プロフィール

発見日 2007年4月19日
発見光度 18.1等
発見者 B. A. Skiff (Lowell Observatory LONEOS)

・ 写真集

・ 軌道要素

T 2007 Feb. 17.0724 TT                                  MPC
q   1.410722             (2000.0)            P               Q
z  +0.019383       Peri.  319.3170      -0.8550105      -0.4092458
                   Node   203.7723      +0.2598534      -0.8696376
e   0.972656       Incl.   52.2087      -0.4488132      +0.2761309
From 100 observations 2007 Apr. 19-May 18.

・ 光度変化

        m1 = 17.0 + 5 logΔ + 10.0 log r

---------------------------------------------------------------------

軌道要素はM.P.E.C. 2007-K15に掲載されたものです。
光度グラフはComet for Windowsで作成したものです。

---------------------------------------------------------------------

Copyright(C) Seiichi Yoshida (comet@aerith.net). All rights reserved.